User: anonymous   Login
Location: �clusier
(49.9361°N, 2.7869°E)
Time: 02:53:54
(UTC+00:00)
Language:

Cosmos 2219 Rocket - Orbit

View from above orbital plane
View from above orbital plane
View from above satellite
View from above satellite

Ground track
Ground track

The orbit data is extracted from the following two-line orbital elements,

1 22220U 92076B   21260.61027749  .00000230  00000-0  13935-3 0  9998
2 22220  71.0024  29.2299 0010926  60.4757 310.5726 14.16474975490740
Epoch (UTC): 17 September 2021 14:38:47
Eccentricity: 0.0010926
inclination: 71.0024°
perigee height: 829 km
apogee height: 845 km
right ascension of ascending node: 29.2299°
argument of perigee: 60.4757°
revolutions per day: 14.16474975
mean anomaly at epoch: 310.5726°
orbit number at epoch: 49074

The dashed part of the orbit path shows where the satellite is in the earth's shadow,  

DLR